This is the latest recevied weather packets stored in our database for station/object KI4HRG. If no packets are shown the sender has not sent any weather packets the latest 1 day(s).
| Time | Temp. | Humidity | Pressure | Rain* | Wind** | Luminosity | Snow |
|---|---|---|---|---|---|---|---|
| 1778075110 | 21.67° C | 89% | 1014.1 hPa | 0 mm | - | 528 W/m² | - |
| 1778073595 | 20.56° C | 92% | 1014.3 hPa | 0 mm | - | 144 W/m² | - |
| 1778073292 | 20.56° C | 92% | 1014.3 hPa | 0 mm | - | 158 W/m² | - |
| 1778072685 | 20.56° C | 93% | 1014.6 hPa | 0 mm | - | 113 W/m² | - |
| 1778072081 | 20° C | 93% | 1014.4 hPa | 0 mm | - | 95 W/m² | - |
| 1778071476 | 20° C | 94% | 1014.3 hPa | 0 mm | - | 32 W/m² | - |
| 1778071174 | 20° C | 94% | 1014.6 hPa | 0 mm | - | 35 W/m² | - |
| 1778069055 | 19.44° C | 94% | 1013.6 hPa | 0 mm | - | 17 W/m² | - |
| 1778064213 | 19.44° C | 92% | 1012.5 hPa | 0 mm | - | 0 W/m² | - |
| 1778063608 | 19.44° C | 92% | 1012.6 hPa | 0 mm | - | 0 W/m² | - |
| 1778063305 | 19.44° C | 91% | 1012.6 hPa | 0 mm | - | 0 W/m² | - |
| 1778063003 | 19.44° C | 91% | 1012.3 hPa | 0 mm | - | 0 W/m² | - |
| 1778062700 | 19.44° C | 91% | 1012.5 hPa | 0 mm | - | 0 W/m² | - |
| 1778062395 | 19.44° C | 91% | 1012.3 hPa | 0 mm | - | 0 W/m² | - |
| 1778060884 | 19.44° C | 90% | 1011.9 hPa | 0 mm | - | 0 W/m² | - |
| 1778060280 | 19.44° C | 90% | 1012.1 hPa | 0 mm | - | 0 W/m² | - |
| 1778059978 | 19.44° C | 90% | 1012 hPa | 0 mm | - | 0 W/m² | - |
| 1778059675 | 19.44° C | 90% | 1011.8 hPa | 0 mm | - | 0 W/m² | - |
| 1778058767 | 19.44° C | 89% | 1011.7 hPa | 0 mm | - | 0 W/m² | - |
| 1778057858 | 19.44° C | 89% | 1011.5 hPa | 0 mm | - | 0 W/m² | - |
| 1778057251 | 19.44° C | 88% | 1011.3 hPa | 0 mm | - | 0 W/m² | - |
| 1778055735 | 19.44° C | 87% | 1011.4 hPa | 0 mm | - | 0 W/m² | - |
| 1778055433 | 19.44° C | 87% | 1011.6 hPa | 0 mm | - | 0 W/m² | - |
| 1778054828 | 19.44° C | 87% | 1011.5 hPa | 0 mm | - | 0 W/m² | - |
| 1778053918 | 20° C | 86% | 1011.5 hPa | 0 mm | - | 0 W/m² | - |
* Rain latest hour (hover to see other rain measurements)
** Current wind speed in m/s (hover to see current wind gust speed)